EW7906 Weather Reports


time (UTC)temp
C
wind
direction
speed
KPH
gust
KPH
rain 1hr
cm
rain 24hr
cm
rain mn
cm
humidity
%
barometer
mb
20260902210617 65 36 0.0 0.0 0.00 0.00 0.00 100 1011.2
20260902210111 65 36 0.0 0.0 0.00 0.00 0.00 100 1011.2
20260902205604 65 36 0.0 1.6 0.00 0.00 0.00 100 1011.4
20260902205041 65 36 0.0 6.4 0.00 0.00 0.00 100 1011.5
20260902204534 66 36 0.0 11.3 0.00 0.00 0.00 100 1011.5
20260902204030 66 330 0.0 11.3 0.00 0.00 0.00 100 1011.6
20260902203526 66 2 1.6 9.7 0.00 0.00 0.00 100 1011.6
20260902203026 66 11 0.0 11.3 0.00 0.00 0.00 100 1011.7
20260902202526 65 28 4.8 11.3 0.00 0.00 0.00 100 1011.8
20260902202026 65 12 6.4 12.9 0.00 0.00 0.00 100 1011.9
20260902201526 65 312 6.4 12.9 0.00 0.00 0.00 100 1011.9
20260902201026 65 358 0.0 8.0 0.00 0.00 0.00 100 1011.9
20260902200523 65 358 0.0 8.0 0.00 0.00 0.00 100 1012.1
20260902200250 65 289 0.0 8.0 0.00 0.00 0.00 100 1012.1
20260902195516 66 264 1.6 9.7 0.00 0.00 0.00 100 1012.2
20260902195013 66 358 0.0 9.7 0.00 0.00 0.00 100 1012.2
20260902194515 66 180 0.0 0.0 0.00 0.00 0.00 100 1012.3
20260902194009 66 180 0.0 0.0 0.00 0.00 0.00 100 1012.4
20260902193458 66 180 0.0 4.8 0.00 0.00 0.00 100 1012.5
20260902192948 65 180 0.0 8.0 0.00 0.00 0.00 100 1012.6
20260902192443 65 358 1.6 8.0 0.00 0.00 0.00 100 1012.6
20260902191922 66 180 0.0 8.0 0.00 0.00 0.00 100 1012.9
20260902191417 66 188 0.0 8.0 0.00 0.00 0.00 100 1012.9
20260902190858 66 191 0.0 9.7 0.00 0.00 0.00 100 1012.9
20260902190348 66 272 6.4 9.7 0.00 0.00 0.00 100 1013.0
20260902185844 66 350 1.6 9.7 0.00 0.00 0.00 100 1013.1
20260902185325 65 52 0.0 11.3 0.00 0.00 0.00 100 1013.2
20260902184806 66 209 4.8 11.3 0.00 0.00 0.00 100 1013.3
20260902184307 66 295 0.0 8.0 0.00 0.00 0.00 100 1013.4
20260902183757 66 268 0.0 6.4 0.00 0.00 0.00 100 1013.5
20260902183246 66 40 0.0 9.7 0.00 0.00 0.00 100 1013.6
20260902182717 66 52 0.0 9.7 0.00 0.00 0.00 100 1013.8
20260902182217 66 196 0.0 9.7 0.00 0.00 0.00 100 1014.0
20260902181717 66 196 0.0 9.7 0.00 0.00 0.00 100 1014.1
20260902181200 66 241 0.0 9.7 0.00 0.00 0.00 100 1014.1
20260902180657 66 241 1.6 9.7 0.00 0.00 0.00 100 1014.3
20260902180158 66 198 1.6 9.7 0.00 0.00 0.00 100 1014.3
20260902175928 65 127 6.4 9.7 0.00 0.00 0.00 100 1014.4
20260902175158 66 225 1.6 9.7 0.00 0.00 0.00 100 1014.6
20260902174657 66 305 0.0 14.5 0.00 0.00 0.00 100 1014.6
20260902174156 66 355 8.0 14.5 0.00 0.00 0.00 100 1014.8
20260902173658 66 331 3.2 12.9 0.00 0.00 0.00 100 1014.8
20260902173156 66 326 1.6 12.9 0.00 0.00 0.00 100 1015.0
20260902172656 65 344 8.0 12.9 0.00 0.00 0.00 100 1015.0
20260902172156 65 219 4.8 9.7 0.00 0.00 0.00 100 1015.2
20260902171928 65 240 0.0 12.9 0.00 0.00 0.00 100 1015.2
20260902171156 65 0 6.4 12.9 0.00 0.00 0.00 100 1015.2
20260902170928 65 247 6.4 12.9 0.00 0.00 0.00 100 1015.2
20260902170149 65 358 4.8 12.9 0.00 0.00 0.00 100 1015.3
20260902165648 65 295 3.2 12.9 0.00 0.00 0.00 100 1015.3
20260902165148 65 334 3.2 12.9 0.00 0.00 0.00 100 1015.4
20260902164648 65 357 3.2 8.0 0.00 0.00 0.00 100 1015.6
20260902164145 65 236 0.0 8.0 0.00 0.00 0.00 100 1015.7
20260902163643 65 282 3.2 9.7 0.00 0.00 0.00 100 1015.8
20260902163142 65 302 0.0 14.5 0.00 0.00 0.00 100 1015.8
20260902162632 65 184 8.0 14.5 0.00 0.00 0.00 100 1015.9
20260902162128 65 219 6.4 14.5 0.00 0.00 0.00 100 1015.9
20260902161857 65 142 0.0 14.5 0.00 0.00 0.00 100 1015.9
20260902161113 65 201 0.0 9.7 0.00 0.00 0.00 100 1015.8
20260902160611 65 288 1.6 12.9 0.00 0.00 0.00 100 1015.8
20260902160605 65 338 3.2 12.9 0.00 0.00 0.00 100 1015.8
20260902155603 65 11 0.0 8.0 0.00 0.00 0.00 100 1015.9
20260902155047 64 358 1.6 8.0 0.00 0.00 0.00 100 1015.9
20260902154818 64 118 1.6 9.7 0.00 0.00 0.00 100 1015.8
20260902154316 64 227 3.2 11.3 0.00 0.00 0.00 100 1015.9
20260902153540 64 313 0.0 11.3 0.00 0.00 0.00 100 1015.9
20260902153302 64 291 4.8 9.7 0.00 0.00 0.00 100 1015.9
20260902152532 64 262 1.6 9.7 0.00 0.00 0.00 100 1015.9
20260902152011 63 240 4.8 11.3 0.00 0.00 0.00 100 1015.9
20260902151507 63 302 0.0 11.3 0.00 0.00 0.00 100 1015.8
20260902150956 63 345 1.6 8.0 0.00 0.00 0.00 100 1015.8
20260902150449 63 267 1.6 9.7 0.00 0.00 0.00 100 1015.7
20260902145941 63 223 3.2 9.7 0.00 0.00 0.00 100 1015.7
20260902145424 63 175 1.6 9.7 0.00 0.00 0.00 100 1015.7
20260902144918 63 337 4.8 11.3 0.00 0.00 0.00 100 1015.7
20260902144417 63 307 1.6 16.1 0.00 0.00 0.00 100 1015.7
20260902143914 63 63 4.8 16.1 0.00 0.00 0.00 100 1015.7
20260902143414 63 2 3.2 11.3 0.00 0.00 0.00 100 1015.7
20260902143140 63 210 1.6 12.9 0.00 0.00 0.00 100 1015.7
20260902142409 63 217 0.0 12.9 0.00 0.00 0.00 100 1015.6
20260902141909 63 199 0.0 12.9 0.00 0.00 0.00 100 1015.7
20260902141404 63 213 4.8 12.9 0.00 0.00 0.00 100 1015.6
20260902140859 63 151 4.8 11.3 0.00 0.00 0.00 100 1015.7
20260902140359 63 268 8.0 11.3 0.00 0.00 0.00 100 1015.7
20260902135858 63 299 1.6 8.0 0.00 0.00 0.00 100 1015.7
20260902135357 62 154 0.0 6.4 0.00 0.00 0.00 100 1015.6
20260902134856 62 206 0.0 6.4 0.00 0.00 0.00 100 1015.7
20260902134344 62 208 0.0 0.0 0.00 0.00 0.00 100 1015.6
20260902133832 62 208 0.0 4.8 0.00 0.00 0.00 100 1015.6
20260902133308 62 208 0.0 4.8 0.00 0.00 0.00 100 1015.6
20260902132758 62 135 0.0 0.0 0.00 0.00 0.00 100 1015.6
20260902132252 62 135 0.0 0.0 0.00 0.00 0.00 100 1015.4
20260902132020 62 135 0.0 0.0 0.00 0.00 0.00 100 1015.3
20260902131521 62 135 0.0 0.0 0.00 0.00 0.00 100 1015.3
20260902130738 62 135 0.0 0.0 0.00 0.00 0.00 100 1015.2
20260902130228 62 135 0.0 0.0 0.00 0.00 0.00 100 1015.2
20260902125725 62 135 0.0 0.0 0.00 0.00 0.00 100 1015.1
20260902125211 62 135 0.0 0.0 0.00 0.00 0.00 100 1015.2
20260902124659 61 135 0.0 0.0 0.00 0.00 0.00 100 1015.1
20260902124148 61 135 0.0 0.0 0.00 0.00 0.00 100 1015.1
20260902123635 61 135 0.0 0.0 0.00 0.00 0.00 100 1015.1
20260902123134 61 135 0.0 0.0 0.00 0.00 0.00 100 1015.0
20260902123129 61 135 0.0 0.0 0.00 0.00 0.00 100 1015.0
20260902122126 61 135 0.0 0.0 0.00 0.00 0.00 100 1015.0
20260902121610 61 135 0.0 0.0 0.00 0.00 0.00 100 1014.8
20260902121048 61 135 0.0 0.0 0.00 0.00 0.00 100 1014.9
20260902120528 61 135 0.0 0.0 0.00 0.00 0.00 100 1014.9
20260902120026 61 135 0.0 0.0 0.00 0.00 0.00 100 1014.9
20260902115527 61 135 0.0 0.0 0.00 0.00 0.00 100 1014.9
20260902115016 61 135 0.0 0.0 0.00 0.00 0.00 100 1014.8
20260902114502 61 135 0.0 0.0 0.00 0.00 0.00 100 1014.7
20260902113941 61 135 0.0 0.0 0.00 0.00 0.00 100 1014.7
20260902113916 61 135 0.0 0.0 0.00 0.00 0.00 100 1014.7
20260902112856 61 135 0.0 0.0 0.00 0.00 0.00 100 1014.7
20260902112333 61 135 0.0 0.0 0.00 0.00 0.00 100 1014.7
20260902111812 61 135 0.0 0.0 0.00 0.00 0.00 100 1014.7
20260902111305 61 135 0.0 0.0 0.00 0.00 0.00 100 1014.7
20260902110800 61 135 0.0 0.0 0.00 0.00 0.00 100 1014.7
20260902110252 61 135 0.0 0.0 0.00 0.00 0.00 100 1014.7
20260902105750 61 135 0.0 0.0 0.00 0.00 0.00 100 1014.6
20260902105242 62 135 0.0 0.0 0.00 0.00 0.00 100 1014.7
20260902104742 61 135 0.0 0.0 0.00 0.00 0.00 100 1014.7
20260902104235 62 135 0.0 0.0 0.00 0.00 0.00 100 1014.7
20260902103720 61 135 0.0 0.0 0.00 0.00 0.00 100 1014.7
20260902103213 62 135 0.0 0.0 0.00 0.00 0.00 100 1014.7
20260902102651 62 135 0.0 0.0 0.00 0.00 0.00 100 1014.7
20260902102130 62 135 0.0 0.0 0.00 0.00 0.00 100 1014.7
20260902102108 61 135 0.0 0.0 0.00 0.00 0.00 100 1014.7
20260902101045 61 135 0.0 0.0 0.00 0.00 0.00 100 1014.7
20260902100759 61 135 0.0 0.0 0.00 0.00 0.00 100 1014.6
20260902100026 61 135 0.0 0.0 0.00 0.00 0.00 100 1014.6
20260902095524 61 135 0.0 0.0 0.00 0.00 0.00 100 1014.7
20260902095004 61 135 0.0 0.0 0.00 0.00 0.00 100 1014.7
20260902094441 61 135 0.0 0.0 0.00 0.00 0.00 100 1014.7
20260902094207 61 135 0.0 0.0 0.00 0.00 0.00 100 1014.7
20260902093430 61 135 0.0 0.0 0.00 0.00 0.00 100 1014.7
20260902092916 61 135 0.0 0.0 0.00 0.00 0.00 100 1014.7
20260902092629 61 135 0.0 0.0 0.00 0.00 0.00 100 1014.7
20260902091856 61 135 0.0 0.0 0.00 0.00 0.00 100 1014.7
20260902091358 61 135 0.0 0.0 0.00 0.00 0.00 100 1014.7
20260902091055 61 135 0.0 0.0 0.00 0.00 0.00 100 1014.8
20260902090302 61 135 0.0 0.0 0.00 0.00 0.00 100 1014.8
20260902085746 62 135 0.0 0.0 0.00 0.00 0.00 100 1014.9
20260902085226 61 135 0.0 0.0 0.00 0.00 0.00 100 1014.9
20260902084715 61 135 0.0 0.0 0.00 0.00 0.00 100 1014.8
20260902084212 61 135 0.0 0.0 0.00 0.00 0.00 100 1014.8
20260902083922 61 135 0.0 0.0 0.00 0.00 0.00 100 1014.9
20260902083129 61 135 0.0 0.0 0.00 0.00 0.00 100 1014.8
20260902082615 61 135 0.0 0.0 0.00 0.00 0.00 100 1014.8
20260902082100 61 135 0.0 0.0 0.00 0.00 0.00 100 1014.8
20260902081828 61 135 0.0 0.0 0.00 0.00 0.00 100 1014.9
20260902081056 61 135 0.0 0.0 0.00 0.00 0.00 100 1014.9
20260902080547 61 135 0.0 0.0 0.00 0.00 0.00 100 1014.9
20260902080025 61 135 0.0 0.0 0.00 0.00 0.00 100 1014.9
20260902075504 61 135 0.0 0.0 0.00 0.00 0.00 100 1014.9
20260902074941 61 135 0.0 0.0 0.00 0.00 0.00 100 1014.9
20260902074420 61 135 0.0 0.0 0.00 0.00 0.00 100 1015.0
20260902073858 61 135 0.0 0.0 0.00 0.00 0.00 100 1015.0
20260902073354 61 135 0.0 0.0 0.00 0.00 0.00 100 1015.0
20260902072853 61 135 0.0 0.0 0.00 0.00 0.00 100 1015.1
20260902072337 61 135 0.0 0.0 0.00 0.00 0.00 100 1015.1
20260902071838 62 135 0.0 0.0 0.00 0.00 0.00 100 1015.1
20260902071326 62 135 0.0 0.0 0.00 0.00 0.00 100 1015.1
20260902070818 62 135 0.0 0.0 0.00 0.00 0.00 100 1015.3
20260902070255 62 135 0.0 0.0 0.00 0.00 0.00 100 1015.3
20260902065733 62 135 0.0 0.0 0.00 0.00 0.00 100 1015.3
20260902065212 62 135 0.0 0.0 0.00 0.00 0.00 100 1015.2
20260902064709 62 135 0.0 0.0 0.00 0.00 0.00 100 1015.2
20260902064154 62 135 0.0 0.0 0.00 0.00 0.00 100 1015.2
20260902063650 62 135 0.0 0.0 0.00 0.00 0.00 100 1015.1
20260902063129 62 135 0.0 0.0 0.00 0.00 0.00 100 1015.1
20260902062626 62 135 0.0 0.0 0.00 0.00 0.00 100 1015.1
20260902062125 62 135 0.0 0.0 0.00 0.00 0.00 100 1015.1
20260902061618 62 135 0.0 0.0 0.00 0.00 0.00 100 1015.1
20260902061114 62 135 0.0 0.0 0.00 0.00 0.00 100 1015.1
20260902060555 62 135 0.0 0.0 0.00 0.00 0.00 100 1015.1
20260902060049 62 135 0.0 0.0 0.00 0.00 0.00 100 1015.1
20260902055546 62 135 0.0 0.0 0.00 0.00 0.00 100 1015.0
20260902055045 62 135 0.0 3.2 0.00 0.00 0.00 100 1015.1
20260902054529 62 135 0.0 3.2 0.00 0.00 0.00 100 1015.1
20260902054026 62 113 0.0 0.0 0.00 0.00 0.00 100 1015.0
20260902053740 62 113 0.0 0.0 0.00 0.00 0.00 100 1015.0
20260902052949 62 113 0.0 0.0 0.00 0.00 0.00 100 1015.0
20260902052425 62 113 0.0 0.0 0.00 0.00 0.00 100 1015.0
20260902051926 62 113 0.0 0.0 0.00 0.00 0.00 100 1014.9
20260902051641 62 113 0.0 0.0 0.00 0.00 0.00 100 1014.9
20260902050906 62 113 0.0 4.8 0.00 0.00 0.00 100 1015.0
20260902050636 62 113 0.0 8.0 0.00 0.00 0.00 100 1015.0
20260902045858 62 163 1.6 12.9 0.00 0.00 0.00 100 1015.0
20260902045627 62 149 0.0 12.9 0.00 0.00 0.00 100 1015.0
20260902044857 62 133 6.4 9.7 0.00 0.00 0.00 100 1015.0
20260902044628 62 99 1.6 9.7 0.00 0.00 0.00 100 1015.0
20260902044117 62 143 0.0 8.0 0.00 0.00 0.00 100 1015.0
20260902043553 63 154 3.2 12.9 0.00 0.00 0.00 100 1015.0
20260902043051 63 140 8.0 12.9 0.00 0.00 0.00 100 1015.0
20260902042320 63 113 8.0 11.3 0.00 0.00 0.00 100 1015.0
20260902042045 63 129 0.0 8.0 0.00 0.00 0.00 100 1015.0
20260902041544 63 143 3.2 8.0 0.00 0.00 0.00 100 1014.9
20260902040809 63 149 0.0 0.0 0.00 0.00 0.00 100 1014.9
20260902040245 63 149 0.0 8.0 0.00 0.00 0.00 100 1014.9
20260902035723 63 149 0.0 8.0 0.00 0.00 0.00 100 1014.8
20260902035202 63 168 0.0 0.0 0.00 0.00 0.00 100 1014.8
20260902034638 63 168 0.0 0.0 0.00 0.00 0.00 100 1014.7
20260902034117 63 168 0.0 0.0 0.00 0.00 0.00 100 1014.6
20260902033604 63 168 0.0 4.8 0.00 0.00 0.00 100 1014.5
20260902033057 63 168 0.0 4.8 0.00 0.00 0.00 100 1014.5
20260902032557 63 120 0.0 0.0 0.00 0.00 0.00 100 1014.3
20260902032034 63 120 0.0 0.0 0.00 0.00 0.00 100 1014.4
20260902031526 63 120 0.0 0.0 0.00 0.00 0.00 100 1014.3
20260902031018 63 120 0.0 0.0 0.00 0.00 0.00 100 1014.2
20260902030515 63 120 0.0 0.0 0.00 0.00 0.00 100 1014.0
20260902025954 63 120 0.0 0.0 0.00 0.00 0.00 100 1014.0
20260902025431 63 120 0.0 0.0 0.00 0.00 0.00 100 1014.0
20260902024910 63 120 0.0 4.8 0.00 0.00 0.00 100 1014.0
20260902024340 63 120 0.0 4.8 0.00 0.00 0.00 100 1013.9
20260902023836 63 129 0.0 9.7 0.00 0.00 0.00 100 1013.6
20260902023327 63 144 0.0 8.0 0.00 0.00 0.00 100 1013.6
20260902022827 63 170 0.0 6.4 0.00 0.00 0.00 100 1013.5
20260902022306 63 181 0.0 9.7 0.00 0.00 0.00 100 1013.3
20260902021805 63 157 1.6 12.9 0.00 0.00 0.00 100 1013.3
20260902021302 63 120 0.0 12.9 0.00 0.00 0.00 100 1013.2
20260902020756 63 154 3.2 8.0 0.00 0.00 0.00 100 1013.2
20260902020257 63 137 1.6 8.0 0.00 0.00 0.00 100 1013.2
20260902015729 63 111 0.0 12.9 0.00 0.00 0.00 100 1013.1
20260902015217 63 171 6.4 12.9 0.00 0.00 0.00 100 1013.0
20260902014716 63 135 0.0 12.9 0.00 0.00 0.00 100 1013.0
20260902014216 63 144 0.0 12.9 0.00 0.00 0.00 100 1012.8
20260902013705 63 165 0.0 12.9 0.00 0.00 0.00 100 1012.6
20260902013156 63 136 0.0 12.9 0.00 0.00 0.00 100 1012.6
20260902012655 63 130 6.4 11.3 0.00 0.00 0.00 100 1012.6
20260902012427 63 130 0.0 11.3 0.00 0.00 0.00 100 1012.4
20260902011648 63 119 3.2 9.7 0.00 0.00 0.00 100 1012.4
20260902011147 63 97 1.6 8.0 0.00 0.00 0.00 100 1012.4
20260902010642 63 94 0.0 9.7 0.00 0.00 0.00 100 1012.3
20260902010411 63 50 3.2 9.7 0.00 0.00 0.00 100 1012.3
20260902005858 64 112 0.0 8.0 0.00 0.00 0.00 100 1012.3
20260902005120 64 150 1.6 14.5 0.00 0.00 0.00 100 1012.3
20260902004838 64 151 0.0 14.5 0.00 0.00 0.00 100 1012.4
20260902004107 64 140 0.0 12.9 0.00 0.00 0.00 100 1012.3
20260902003834 64 113 4.8 12.9 0.00 0.00 0.00 100 1012.4
20260902003558 64 165 4.8 9.7 0.00 0.00 0.00 100 1012.5
20260902002557 64 151 0.0 14.5 0.00 0.00 0.00 100 1012.4
20260902002051 64 151 0.0 14.5 0.00 0.00 0.00 100 1012.4
20260902001549 64 116 3.2 14.5 0.00 0.00 0.00 100 1012.4
20260902001049 64 120 0.0 9.7 0.00 0.00 0.00 100 1012.4
20260902000542 64 70 0.0 9.7 0.00 0.00 0.00 100 1012.4
20260902000029 64 157 0.0 9.7 0.00 0.00 0.00 100 1012.4
20260901235529 64 132 0.0 9.7 0.00 0.00 0.00 100 1012.4
20260901235026 64 104 3.2 9.7 0.00 0.00 0.00 100 1012.4
20260901234526 64 137 1.6 12.9 0.00 0.00 0.00 100 1012.4
20260901234027 65 74 0.0 12.9 0.00 0.00 0.00 100 1012.3
20260901233516 65 99 4.8 12.9 0.00 0.00 0.00 100 1012.2
20260901233015 65 144 3.2 14.5 0.00 0.00 0.00 100 1012.3
20260901232740 65 122 0.0 16.1 0.00 0.00 0.00 100 1012.3
20260901232006 65 77 6.4 16.1 0.00 0.00 0.00 100 1012.3
20260901231505 65 5 6.4 14.5 0.00 0.00 0.00 100 1012.3
20260901231235 65 165 6.4 11.3 0.00 0.00 0.00 100 1012.2
20260901230504 65 163 0.0 9.7 0.00 0.00 0.00 100 1012.2
20260901230004 65 85 0.0 9.7 0.00 0.00 0.00 100 1012.3
20260901225458 65 150 1.6 12.9 0.00 0.00 0.00 100 1012.3
20260901225228 65 161 9.7 12.9 0.00 0.00 0.00 100 1012.2
20260901224456 65 157 3.2 11.3 0.00 0.00 0.00 100 1012.2
20260901223956 65 9 0.0 14.5 0.00 0.00 0.00 100 1012.2
20260901223456 65 120 1.6 14.5 0.00 0.00 0.00 100 1012.3
20260901222949 65 70 1.6 8.0 0.00 0.00 0.00 100 1012.3
20260901222444 65 205 0.0 6.4 0.00 0.00 0.00 100 1012.3
20260901222212 65 98 0.0 0.0 0.00 0.00 0.00 100 1012.4
20260901221418 65 98 0.0 0.0 0.00 0.00 0.00 100 1012.4
20260901221126 65 98 0.0 0.0 0.00 0.00 0.00 100 1012.4
20260901220343 65 98 0.0 0.0 0.00 0.00 0.00 100 1012.4
20260901215818 65 98 0.0 4.8 0.00 0.00 0.00 100 1012.4
20260901215537 65 81 0.0 14.5 0.00 0.00 0.00 100 1012.4
20260901214756 65 81 0.0 14.5 0.00 0.00 0.00 100 1012.4
20260901214528 65 151 1.6 9.7 0.00 0.00 0.00 100 1012.4
20260901213752 66 127 4.8 9.7 0.00 0.00 0.00 100 1012.5
20260901213239 65 26 3.2 9.7 0.00 0.00 0.00 100 1012.4
20260901212737 65 118 0.0 4.8 0.00 0.00 0.00 100 1012.4
20260901212214 65 118 0.0 4.8 0.00 0.00 0.00 100 1012.5
20260901211652 65 120 0.0 9.7 0.00 0.00 0.00 100 1012.6
20260901211421 65 101 0.0 9.7 0.00 0.00 0.00 100 1012.8